Find Starlink 30198

NORAD ID: 57290 Int'l Des: 2023-096 Owner: SPXS Country: US Constellation: starlink operational
LEOCIRCULAR

实时位置

正在加载3D地球...

关于 Starlink 30198

正在加载描述...

即将过境

Passes for default location (London). Set your location on the main map for personalized predictions.

高度历史

Loading altitude history...

两行轨道根数

1 57290U 23096A 26129.38809781 .00025486 00000-0 10737-2 0 9992
2 57290 42.9941 243.4975 0003917 330.5010 29.5618 15.22868896156862
Epoch: May 9, 2026 • Age: 31 hours

当前状态

高度 503.7 km
速度 7.61 km/s
星下点 -22.23°S, 28.66°W
发射日期 Jul 10, 2023
运行时间 2.8 years
类型 internet

技术详情

分类 Payload
质量 730.00 kg
干质量 700.00 kg
总质量 730.00 kg
长度 0.30 m
直径 4.10 m
跨度 29.00 m
形状 Box + pan
制造商 SPXS
平台类型 Starlink V2M
阶段状态 In Orbit
所有者/国家 SPXS/US

Most Searched